SCP
0 0 0 0 0 0 0 0 0 0 0 0 0 0 0 0 0 0 0 0 0 0 0 -0 0 0 0 0 0 0 0 0
-0 0 0 0 0 0 0 0 0 0 0 0 0 0 0 0 0 0 0 -0 0 0 -0 -0 -0 0 0 0 0 0 0 0
-0 -0 0 0 0 0 0 0 0 0 0 0 0 0 0 0 0 0 0 0 -0 0 0 0 -0 -0 0 0 0 0 0 0
0 0 0 0 0 0 0 0 0 0 0 0 0 0 0 0 -0 -0 -0 -0 -0 -0 -0 0 -0 -0 -0 0 0 0 0 0
0 0 0 0 0 0 0 0 0 0 0 0 0 0 0 0 0 -0 -0 -0 -0 -0 -0 -0 0 0 -0 0 0 0 0 0
0 0 0 0 0 0 0 0 0 0 0 0 0 0 0 0 0 0 -0 -0 -0 -0 -0 -0 -0 -0 -0 0 0 0 0 0
0 0 0 0 0 0 0 0 0 0 0 0 0 0 0 0 0 0 0 0 0 0 -0 -0 -0 -0 -0 0 0 0 0 0
0 0 0 0 0 0 0 0 0 0 0 0 0 0 0 0 0 0 0 0 0 0 0 0 0 0 -0 -0 0 0 0 0
0 0 0 0 0 0 0 0 0 0 0 0 0 0 0 0 0 0 0 0 0 0 0 0 0 0 0 0 0 0 -0 -0
0 0 0 0 0 0 0 0 0 0 0 0 0 0 0 0 0 0 0 0 0 0 0 -0 -0 -0 -0 -0 -0 0 0 0
0 0 0 0 0 0 0 0 0 0 0 0 0 0 0 0 0 0 0 0 0 0 0 0 0 -0 -0 0 0 0 0 0
0 0 0 0 0 0 0 0 0 0 0 0 0 0 0 0 0 0 0 0 0 0 0 0 0 0 -0 -0 0 0 -0 -0
0 0 0 0 0 0 0 0 0 0 0 0 0 0 0 0 0 0 0 0 0 0 0 0 0 0 0 -0 -0 0 -0 -0
0 0 0 0 0 0 0 0 0 0 0 0 0 0 0 0 0 0 0 0 0 0 0 0 0 0 0 0 -0 -0 -0 0
0 0 0 0 0 0 0 0 0 0 0 0 0 0 0 0 0 0 0 0 0 0 0 0 -0 -0 -0 -0 -0 -0 -0 0
0 0 0 0 0 0 0 0 0 0 0 0 0 0 0 0 0 0 0 0 0 0 0 0 -0 0 0 0 0 0 0 0
0 0 0 0 0 0 0 0 0 0 0 0 0 0 0 0 0 0 0 0 0 0 0 0 0 0 0 0 0 0 0 0
0 0 0 0 0 0 0 0 0 0 0 0 0 0 0 0 0 0 0 0 0 0 0 0 0 0 0 0 0 0 0 0
0 0 0 0 0 0 0 0 0 0 0 0 0 0 0 0 0 0 0 0 0 0 0 0 0 0 0 0 0 0 0 0
0 0 0 0 0 0 0 0 0 0 0 0 0 0 0 0 0 0 0 0 0 0 0 0 0 0 0 0 0 0 0 0
Wind_Speed_500mb
24 24 24 25 25 26 29 33 33 31 32 32 30 28 29 32 31 29 23 23 27 30 34 36 39 41 49 46 45 51 38 42
21 22 22 22 24 25 26 27 27 28 28 28 25 23 25 27 28 27 22 23 26 31 32 32 34 36 33 36 39 48 41 35
23 21 19 18 19 21 23 24 27 27 23 21 21 17 19 19 23 25 24 24 29 28 29 32 28 23 23 27 34 30 29 29
22 20 16 14 15 16 18 22 26 23 19 17 18 17 16 15 18 20 23 27 32 33 31 28 25 24 24 25 32 33 29 29
21 17 12 10 11 13 18 24 26 22 18 16 17 15 14 15 15 16 18 20 22 21 20 20 18 18 21 18 23 27 30 32
19 13 9 7 8 12 17 21 22 21 20 22 22 20 18 17 16 17 17 19 19 18 16 14 11 9 9 12 21 25 26 26
19 12 7 4 6 9 13 15 18 21 22 25 28 29 27 26 24 23 22 21 20 18 19 16 16 14 10 7 6 13 14 18
16 11 6 4 3 6 11 16 19 22 24 27 28 28 28 28 28 28 30 29 29 30 30 31 28 24 28 28 26 26 31 28
14 13 8 4 6 10 12 14 16 18 21 25 28 28 27 27 26 26 25 27 30 28 32 32 35 38 34 31 30 28 31 31
16 15 13 11 11 11 8 7 6 9 11 13 16 18 18 18 17 17 18 19 17 18 20 22 25 25 24 23 22 21 22 21
22 20 19 17 18 17 14 9 6 3 2 4 5 6 7 8 9 10 12 13 14 15 17 17 16 15 16 16 16 14 16 16
33 28 22 28 27 24 21 15 15 12 10 7 5 5 6 8 10 9 7 7 9 10 10 11 12 11 9 9 10 9 9 8
38 35 32 36 36 34 30 22 23 22 20 17 14 11 10 9 8 10 12 11 10 11 12 11 11 11 11 9 7 6 6 6
39 42 41 45 46 45 32 34 32 30 27 25 24 20 18 16 15 13 12 12 13 12 11 11 12 12 12 13 14 15 14 14
43 46 49 50 54 50 42 41 45 39 35 34 33 30 28 26 23 22 20 20 19 19 18 19 17 18 22 21 23 24 26 27
50 50 49 46 58 57 52 50 54 50 44 42 41 38 36 35 32 31 26 29 28 25 27 28 24 22 26 28 30 32 35 39
50 53 49 44 51 58 58 60 62 62 57 50 47 45 44 43 41 40 36 34 36 34 35 33 36 34 35 36 38 40 42 49
52 51 50 46 48 46 51 62 69 70 66 59 55 52 51 49 48 47 41 45 43 42 42 44 45 44 43 44 46 47 48 54
49 48 44 44 42 35 44 58 65 69 69 68 63 58 55 54 53 53 53 52 48 46 48 48 49 50 51 51 54 58 55 59
44 42 42 46 42 39 44 51 55 62 65 66 67 63 60 58 58 57 58 59 60 57 54 51 53 57 57 57 58 61 64 64
Wind_Direction_500mb
319 318 319 318 322 327 328 333 332 330 326 328 325 322 319 318 314 310 312 308 296 290 287 281 270 270 259 256 254 249 245 238
328 325 324 326 329 335 336 336 334 333 329 327 323 323 327 325 320 309 297 286 290 292 287 290 282 272 265 255 252 244 239 230
333 330 332 334 338 342 348 347 348 341 334 331 328 335 330 326 316 307 305 303 303 301 300 298 285 286 251 229 233 220 220 224
336 335 340 342 347 358 2 359 2 353 349 348 340 339 332 323 309 315 324 325 316 311 303 296 291 280 259 234 221 223 223 230
341 341 340 349 7 14 8 12 11 12 15 14 6 359 345 344 335 330 325 314 304 302 300 302 288 281 262 232 228 226 229 230
343 339 345 360 20 18 15 19 23 28 35 39 42 35 27 21 10 9 5 350 344 345 343 329 320 292 278 238 228 233 219 212
337 330 339 353 11 22 31 32 43 50 51 54 53 48 45 48 46 39 34 33 37 37 34 33 45 49 51 63 190 200 171 175
325 307 299 302 16 57 61 66 67 67 66 65 63 59 56 58 58 58 54 53 60 63 71 69 70 77 95 96 104 116 100 100
306 291 272 233 147 125 100 87 77 75 72 70 69 69 66 65 62 69 71 64 63 61 61 61 64 60 59 63 74 81 88 90
300 285 260 227 192 178 162 131 106 86 72 65 70 72 68 61 57 53 42 42 46 54 65 75 76 76 73 69 69 72 79 88
280 270 257 238 221 206 205 203 207 200 118 50 18 11 17 42 58 57 37 37 40 35 34 40 53 71 80 86 90 88 90 94
277 271 251 243 235 229 225 225 241 244 262 271 283 307 329 342 348 352 4 15 19 26 27 32 35 34 35 44 60 81 90 98
276 270 258 249 244 240 241 234 246 250 256 261 262 267 272 286 307 319 327 336 350 356 356 2 5 8 11 16 20 18 5 355
292 273 259 253 251 247 246 246 251 249 249 253 258 261 265 269 275 275 280 293 304 308 310 314 326 331 331 328 327 324 320 313
303 286 270 259 257 257 248 245 252 253 251 251 253 255 258 262 264 267 274 279 284 292 299 302 311 314 311 313 312 311 308 303
295 290 283 269 260 258 254 249 253 257 254 254 257 258 260 263 265 269 271 276 279 283 287 291 290 292 295 297 296 296 295 292
304 291 286 276 263 256 255 252 253 255 257 257 260 262 263 265 266 269 271 270 275 280 284 284 288 289 289 290 291 292 292 289
305 296 288 283 271 261 253 253 253 254 256 259 260 261 263 265 269 271 266 274 275 276 279 283 288 291 292 293 294 291 290 287
307 311 295 284 281 280 259 252 251 253 254 256 259 262 265 267 270 272 274 274 269 273 279 282 285 287 287 287 286 286 285 286
321 317 302 283 280 277 267 256 254 254 255 256 260 262 266 268 269 271 273 275 277 278 277 280 279 280 282 282 283 284 283 283
Wind_Speed_850mb
24 24 24 25 25 26 29 33 33 31 32 32 30 28 29 32 31 29 23 23 27 30 34 36 39 41 49 46 45 51 38 42
21 22 22 22 24 25 26 27 27 28 28 28 25 23 25 27 28 27 22 23 26 31 32 32 34 36 33 36 39 48 41 35
23 21 19 18 19 21 23 24 27 27 23 21 21 17 19 19 23 25 24 24 29 28 29 32 28 23 23 27 34 30 29 29
22 20 16 14 15 16 18 22 26 23 19 17 18 17 16 15 18 20 23 27 32 33 31 28 25 24 24 25 32 33 29 29
21 17 12 10 11 13 18 24 26 22 18 16 17 15 14 15 15 16 18 20 22 21 20 20 18 18 21 18 23 27 30 32
19 13 9 7 8 12 17 21 22 21 20 22 22 20 18 17 16 17 17 19 19 18 16 14 11 9 9 12 21 25 26 26
19 12 7 4 6 9 13 15 18 21 22 25 28 29 27 26 24 23 22 21 20 18 19 16 16 14 10 7 6 13 14 18
16 11 6 4 3 6 11 16 19 22 24 27 28 28 28 28 28 28 30 29 29 30 30 31 28 24 28 28 26 26 31 28
14 13 8 4 6 10 12 14 16 18 21 25 28 28 27 27 26 26 25 27 30 28 32 32 35 38 34 31 30 28 31 31
16 15 13 11 11 11 8 7 6 9 11 13 16 18 18 18 17 17 18 19 17 18 20 22 25 25 24 23 22 21 22 21
22 20 19 17 18 17 14 9 6 3 2 4 5 6 7 8 9 10 12 13 14 15 17 17 16 15 16 16 16 14 16 16
33 28 22 28 27 24 21 15 15 12 10 7 5 5 6 8 10 9 7 7 9 10 10 11 12 11 9 9 10 9 9 8
38 35 32 36 36 34 30 22 23 22 20 17 14 11 10 9 8 10 12 11 10 11 12 11 11 11 11 9 7 6 6 6
39 42 41 45 46 45 32 34 32 30 27 25 24 20 18 16 15 13 12 12 13 12 11 11 12 12 12 13 14 15 14 14
43 46 49 50 54 50 42 41 45 39 35 34 33 30 28 26 23 22 20 20 19 19 18 19 17 18 22 21 23 24 26 27
50 50 49 46 58 57 52 50 54 50 44 42 41 38 36 35 32 31 26 29 28 25 27 28 24 22 26 28 30 32 35 39
50 53 49 44 51 58 58 60 62 62 57 50 47 45 44 43 41 40 36 34 36 34 35 33 36 34 35 36 38 40 42 49
52 51 50 46 48 46 51 62 69 70 66 59 55 52 51 49 48 47 41 45 43 42 42 44 45 44 43 44 46 47 48 54
49 48 44 44 42 35 44 58 65 69 69 68 63 58 55 54 53 53 53 52 48 46 48 48 49 50 51 51 54 58 55 59
44 42 42 46 42 39 44 51 55 62 65 66 67 63 60 58 58 57 58 59 60 57 54 51 53 57 57 57 58 61 64 64
Wind_Direction_850mb
319 318 319 318 322 327 328 333 332 330 326 328 325 322 319 318 314 310 312 308 296 290 287 281 270 270 259 256 254 249 245 238
328 325 324 326 329 335 336 336 334 333 329 327 323 323 327 325 320 309 297 286 290 292 287 290 282 272 265 255 252 244 239 230
333 330 332 334 338 342 348 347 348 341 334 331 328 335 330 326 316 307 305 303 303 301 300 298 285 286 251 229 233 220 220 224
336 335 340 342 347 358 2 359 2 353 349 348 340 339 332 323 309 315 324 325 316 311 303 296 291 280 259 234 221 223 223 230
341 341 340 349 7 14 8 12 11 12 15 14 6 359 345 344 335 330 325 314 304 302 300 302 288 281 262 232 228 226 229 230
343 339 345 360 20 18 15 19 23 28 35 39 42 35 27 21 10 9 5 350 344 345 343 329 320 292 278 238 228 233 219 212
337 330 339 353 11 22 31 32 43 50 51 54 53 48 45 48 46 39 34 33 37 37 34 33 45 49 51 63 190 200 171 175
325 307 299 302 16 57 61 66 67 67 66 65 63 59 56 58 58 58 54 53 60 63 71 69 70 77 95 96 104 116 100 100
306 291 272 233 147 125 100 87 77 75 72 70 69 69 66 65 62 69 71 64 63 61 61 61 64 60 59 63 74 81 88 90
300 285 260 227 192 178 162 131 106 86 72 65 70 72 68 61 57 53 42 42 46 54 65 75 76 76 73 69 69 72 79 88
280 270 257 238 221 206 205 203 207 200 118 50 18 11 17 42 58 57 37 37 40 35 34 40 53 71 80 86 90 88 90 94
277 271 251 243 235 229 225 225 241 244 262 271 283 307 329 342 348 352 4 15 19 26 27 32 35 34 35 44 60 81 90 98
276 270 258 249 244 240 241 234 246 250 256 261 262 267 272 286 307 319 327 336 350 356 356 2 5 8 11 16 20 18 5 355
292 273 259 253 251 247 246 246 251 249 249 253 258 261 265 269 275 275 280 293 304 308 310 314 326 331 331 328 327 324 320 313
303 286 270 259 257 257 248 245 252 253 251 251 253 255 258 262 264 267 274 279 284 292 299 302 311 314 311 313 312 311 308 303
295 290 283 269 260 258 254 249 253 257 254 254 257 258 260 263 265 269 271 276 279 283 287 291 290 292 295 297 296 296 295 292
304 291 286 276 263 256 255 252 253 255 257 257 260 262 263 265 266 269 271 270 275 280 284 284 288 289 289 290 291 292 292 289
305 296 288 283 271 261 253 253 253 254 256 259 260 261 263 265 269 271 266 274 275 276 279 283 288 291 292 293 294 291 290 287
307 311 295 284 281 280 259 252 251 253 254 256 259 262 265 267 270 272 274 274 269 273 279 282 285 287 287 287 286 286 285 286
321 317 302 283 280 277 267 256 254 254 255 256 260 262 266 268 269 271 273 275 277 278 277 280 279 280 282 282 283 284 283 283